Simultaneous Nadir Overpasses (SNOs) Predictions

Prediction of SNOs between AQUA and METOP-C Satellite Orbit:

Table of predicted SNOs for the next 14.0 days since TLE Epoch: 8/3/2024
Index Date (AQUA) Time (AQUA) Lat,Lon (AQUA) SZA (AQUA ) Date (METOP-C) Time (METOP-C) Lat,Lon (METOP-C) SZA (METOP-C ) Distance(km) Time Diff (sec)
1 08/03/2024 23:46:36 -75.56, 2.41 121.67 08/03/2024 23:46:12 -75.56, 2.45 121.67 1.15 24
2 08/04/2024 00:35:59 75.60, 169.94 58.39 08/04/2024 00:36:51 75.59, 169.87 58.37 2.44 52
3 08/06/2024 14:17:47 -75.29, 145.41 121.24 08/06/2024 14:16:37 -75.26, 143.94 121.25 41.60 70
4 08/06/2024 15:07:15 75.58, -47.77 59.08 08/06/2024 15:07:10 75.57, -47.77 59.06 1.65 5
5 08/06/2024 15:56:37 -75.63, 119.75 120.87 08/06/2024 15:57:50 -75.66, 119.85 120.84 4.51 73
6 08/09/2024 05:38:30 75.55, 94.57 59.78 08/09/2024 05:37:30 75.54, 94.55 59.77 1.19 60
7 08/09/2024 06:27:52 -75.59, -97.90 120.17 08/09/2024 06:28:11 -75.58, -97.98 120.18 2.39 19
8 08/11/2024 20:59:06 -75.58, 44.36 119.41 08/11/2024 20:58:30 -75.58, 44.45 119.41 2.55 36
9 08/11/2024 21:48:29 75.64,-148.14 60.66 08/11/2024 21:49:09 75.61,-148.11 60.64 2.79 40
10 08/14/2024 11:30:07 -75.01,-171.79 119.20 08/14/2024 11:29:02 -74.95,-175.00 119.22 92.49 65
11 08/14/2024 12:19:41 75.62, -5.83 61.44 08/14/2024 12:19:28 75.60, -5.72 61.42 3.40 13
12 08/14/2024 13:09:03 -75.66, 161.71 118.51 08/14/2024 13:10:09 -75.64, 161.74 118.53 1.91 66
13 08/17/2024 02:50:51 75.58, 136.54 62.22 08/17/2024 02:49:47 75.58, 136.64 62.22 2.86 64
14 08/17/2024 03:40:13 -75.62, -55.92 117.73 08/17/2024 03:40:28 -75.62, -55.91 117.73 0.37 15



Historial Predications of SNOs between AQUA and METOP-C
